owner,sensor,date,latitude,longitude,vertical_datum,direction_of_sea_water_velocity,sea_water_speed,upward_sea_water_velocity,qcFlag 
TABS,ioos:station:wmo:42047:1,2010-05-01T00:00:00Z,27.8966,-93.5973,2.0,75.40402605,20.35698652,-99999.0,'11111222,11111222,99999999' 
TABS,ioos:station:wmo:42047:1,2010-05-01T00:30:00Z,27.8966,-93.5973,2.0,66.20522026,16.6558098,-99999.0,'11111222,11111222,99999999' 
TABS,ioos:station:wmo:42047:1,2010-05-01T01:00:00Z,27.8966,-93.5973,2.0,44.32813204,13.86731769,-99999.0,'11111222,11111222,99999999' 
TABS,ioos:station:wmo:42047:1,2010-05-01T01:30:00Z,27.8966,-93.5973,2.0,57.58893495,6.585931977,-99999.0,'11133222,11111222,99999999' 
TABS,ioos:station:wmo:42047:1,2010-05-01T02:00:00Z,27.8966,-93.5973,2.0,33.53617902,6.190476557,-99999.0,'11133222,11111222,99999999' 
TABS,ioos:station:wmo:42047:1,2010-05-01T02:30:00Z,27.8966,-93.5973,2.0,41.31812831,6.936894118,-99999.0,'11133222,11111222,99999999' 
TABS,ioos:station:wmo:42047:1,2010-05-01T03:00:00Z,27.8966,-93.5973,2.0,8.716194905,13.00013077,-99999.0,'11111222,11111222,99999999' 
TABS,ioos:station:wmo:42047:1,2010-05-01T03:30:00Z,27.8966,-93.5973,2.0,0.000210459,12.4,-99999.0,'11111222,11111222,99999999' 
TABS,ioos:station:wmo:42047:1,2010-05-01T04:00:00Z,27.8966,-93.5973,2.0,356.2743924,13.38829713,-99999.0,'11111222,11111222,99999999' 
TABS,ioos:station:wmo:42047:1,2010-05-01T04:30:00Z,27.8966,-93.5973,2.0,1.909358427,17.7098306,-99999.0,'11111222,11111222,99999999' 
TABS,ioos:station:wmo:42047:1,2010-05-01T05:00:00Z,27.8966,-93.5973,2.0,3.539074739,17.17274585,-99999.0,'11111222,11111222,99999999' 
TABS,ioos:station:wmo:42047:1,2010-05-01T05:30:00Z,27.8966,-93.5973,2.0,347.4402669,21.93492649,-99999.0,'11111222,11111222,99999999' 
TABS,ioos:station:wmo:42047:1,2010-05-01T06:00:00Z,27.8966,-93.5973,2.0,348.8961791,23.4693694,-99999.0,'11111222,11111222,99999999' 
TABS,ioos:station:wmo:42047:1,2010-05-01T06:30:00Z,27.8966,-93.5973,2.0,346.3738775,26.78389441,-99999.0,'11111222,11111222,99999999' 
TABS,ioos:station:wmo:42047:1,2010-05-01T07:00:00Z,27.8966,-93.5973,2.0,342.0335688,23.98983952,-99999.0,'11111222,11111222,99999999' 
TABS,ioos:station:wmo:42047:1,2010-05-01T07:30:00Z,27.8966,-93.5973,2.0,336.8246706,26.17200031,-99999.0,'11111222,11111222,99999999' 
TABS,ioos:station:wmo:42047:1,2010-05-01T08:00:00Z,27.8966,-93.5973,2.0,328.8972854,23.28786165,-99999.0,'11111222,11111222,99999999' 
TABS,ioos:station:wmo:42047:1,2010-05-01T08:30:00Z,27.8966,-93.5973,2.0,320.4697527,36.27710711,-99999.0,'11111222,11111222,99999999' 
TABS,ioos:station:wmo:42047:1,2010-05-01T09:00:00Z,27.8966,-93.5973,2.0,319.7105273,44.08851324,-99999.0,'11111222,11111222,99999999' 
TABS,ioos:station:wmo:42047:1,2010-05-01T09:30:00Z,27.8966,-93.5973,2.0,323.5125059,43.18496035,-99999.0,'11111222,11111222,99999999' 
TABS,ioos:station:wmo:42047:1,2010-05-01T10:00:00Z,27.8966,-93.5973,2.0,326.8585779,42.60015258,-99999.0,'11111222,11111222,99999999' 
TABS,ioos:station:wmo:42047:1,2010-05-01T10:30:00Z,27.8966,-93.5973,2.0,339.8688913,32.68697906,-99999.0,'11111222,11111222,99999999' 
TABS,ioos:station:wmo:42047:1,2010-05-01T11:00:00Z,27.8966,-93.5973,2.0,347.1100897,33.70949421,-99999.0,'11111222,11111222,99999999' 
TABS,ioos:station:wmo:42047:1,2010-05-01T11:30:00Z,27.8966,-93.5973,2.0,350.7480597,41.23647536,-99999.0,'11111222,11111222,99999999' 
TABS,ioos:station:wmo:42047:1,2010-05-01T12:00:00Z,27.8966,-93.5973,2.0,357.9081491,39.4462926,-99999.0,'11111222,11111222,99999999' 
TABS,ioos:station:wmo:42047:1,2010-05-01T12:30:00Z,27.8966,-93.5973,2.0,9.613641104,44.25142936,-99999.0,'11111222,11111222,99999999' 
TABS,ioos:station:wmo:42047:1,2010-05-01T13:00:00Z,27.8966,-93.5973,2.0,11.17306438,43.45357638,-99999.0,'11111222,11111222,99999999' 
TABS,ioos:station:wmo:42047:1,2010-05-01T13:30:00Z,27.8966,-93.5973,2.0,14.45714719,40.29595513,-99999.0,'11111222,11111222,99999999' 
TABS,ioos:station:wmo:42047:1,2010-05-01T14:00:00Z,27.8966,-93.5973,2.0,16.93143551,44.46744989,-99999.0,'11111222,11111222,99999999' 
TABS,ioos:station:wmo:42047:1,2010-05-01T14:30:00Z,27.8966,-93.5973,2.0,13.29677556,46.21901449,-99999.0,'11111222,11111222,99999999' 
TABS,ioos:station:wmo:42047:1,2010-05-01T15:00:00Z,27.8966,-93.5973,2.0,18.80964265,46.92604074,-99999.0,'11111222,11111222,99999999' 
TABS,ioos:station:wmo:42047:1,2010-05-01T15:30:00Z,27.8966,-93.5973,2.0,17.69527652,50.20534334,-99999.0,'11111222,11111222,99999999' 
TABS,ioos:station:wmo:42047:1,2010-05-01T16:00:00Z,27.8966,-93.5973,2.0,23.47318298,50.98949892,-99999.0,'11111222,11111222,99999999' 
TABS,ioos:station:wmo:42047:1,2010-05-01T16:30:00Z,27.8966,-93.5973,2.0,21.21076561,52.04574238,-99999.0,'11111222,11111222,99999999' 
TABS,ioos:station:wmo:42047:1,2010-05-01T17:00:00Z,27.8966,-93.5973,2.0,24.98818288,59.9627501,-99999.0,'11111222,11111222,99999999' 
TABS,ioos:station:wmo:42047:1,2010-05-01T17:30:00Z,27.8966,-93.5973,2.0,31.89942572,57.24528365,-99999.0,'11111222,11111222,99999999' 
TABS,ioos:station:wmo:42047:1,2010-05-01T18:00:00Z,27.8966,-93.5973,2.0,20.6195355,58.24088083,-99999.0,'11111222,11111222,99999999' 
TABS,ioos:station:wmo:42047:1,2010-05-01T18:30:00Z,27.8966,-93.5973,2.0,38.00390641,53.06039012,-99999.0,'11111222,11111222,99999999' 
TABS,ioos:station:wmo:42047:1,2010-05-01T19:00:00Z,27.8966,-93.5973,2.0,34.15347837,48.02196581,-99999.0,'11111222,11111222,99999999' 
TABS,ioos:station:wmo:42047:1,2010-05-01T19:30:00Z,27.8966,-93.5973,2.0,33.33342662,45.87736915,-99999.0,'11111222,11111222,99999999' 
TABS,ioos:station:wmo:42047:1,2010-05-01T20:00:00Z,27.8966,-93.5973,2.0,40.52793432,43.98160184,-99999.0,'11111222,11111222,99999999' 
TABS,ioos:station:wmo:42047:1,2010-05-01T20:30:00Z,27.8966,-93.5973,2.0,38.58027247,42.68701559,-99999.0,'11111222,11111222,99999999' 
TABS,ioos:station:wmo:42047:1,2010-05-01T21:00:00Z,27.8966,-93.5973,2.0,39.9019325,43.44681576,-99999.0,'11111222,11111222,99999999' 
TABS,ioos:station:wmo:42047:1,2010-05-01T21:30:00Z,27.8966,-93.5973,2.0,39.17377682,39.00752748,-99999.0,'11111222,11111222,99999999' 
TABS,ioos:station:wmo:42047:1,2010-05-01T22:00:00Z,27.8966,-93.5973,2.0,50.72585262,31.89407782,-99999.0,'11111222,11111222,99999999' 
TABS,ioos:station:wmo:42047:1,2010-05-01T22:30:00Z,27.8966,-93.5973,2.0,44.00865187,30.24041336,-99999.0,'11111222,11111222,99999999' 
TABS,ioos:station:wmo:42047:1,2010-05-01T23:00:00Z,27.8966,-93.5973,2.0,46.23192397,27.9583923,-99999.0,'11111222,11111222,99999999' 
TABS,ioos:station:wmo:42047:1,2010-05-01T23:30:00Z,27.8966,-93.5973,2.0,43.12442695,24.1960162,-99999.0,'11111222,11111222,99999999' 
TABS,ioos:station:wmo:42047:1,2010-05-02T00:00:00Z,27.8966,-93.5973,2.0,45.12288142,19.79903533,-99999.0,'11111222,11111222,99999999' 
TABS,ioos:station:wmo:42047:1,2010-05-02T00:30:00Z,27.8966,-93.5973,2.0,56.62143885,20.92082694,-99999.0,'11111222,11111222,99999999' 
TABS,ioos:station:wmo:42047:1,2010-05-02T01:00:00Z,27.8966,-93.5973,2.0,46.56084484,17.39420881,-99999.0,'11111222,11111222,99999999' 
TABS,ioos:station:wmo:42047:1,2010-05-02T01:30:00Z,27.8966,-93.5973,2.0,47.99520621,12.04433892,-99999.0,'11111222,11111222,99999999' 
TABS,ioos:station:wmo:42047:1,2010-05-02T02:00:00Z,27.8966,-93.5973,2.0,26.873299,22.45491928,-99999.0,'11111222,11111222,99999999' 
TABS,ioos:station:wmo:42047:1,2010-05-02T02:30:00Z,27.8966,-93.5973,2.0,25.77496486,12.9704279,-99999.0,'11111222,11111222,99999999' 
TABS,ioos:station:wmo:42047:1,2010-05-02T03:00:00Z,27.8966,-93.5973,2.0,37.99023394,13.09450266,-99999.0,'11111222,11111222,99999999' 
TABS,ioos:station:wmo:42047:1,2010-05-02T03:30:00Z,27.8966,-93.5973,2.0,30.07828403,13.64777271,-99999.0,'11111222,11111222,99999999' 
TABS,ioos:station:wmo:42047:1,2010-05-02T04:00:00Z,27.8966,-93.5973,2.0,29.32263461,20.3583742,-99999.0,'11111222,11111222,99999999' 
TABS,ioos:station:wmo:42047:1,2010-05-02T04:30:00Z,27.8966,-93.5973,2.0,27.87008707,21.7983715,-99999.0,'11111222,11111222,99999999' 
TABS,ioos:station:wmo:42047:1,2010-05-02T05:00:00Z,27.8966,-93.5973,2.0,21.2309682,19.5788304,-99999.0,'11111222,11111222,99999999' 
TABS,ioos:station:wmo:42047:1,2010-05-02T05:30:00Z,27.8966,-93.5973,2.0,18.4039716,17.45261298,-99999.0,'11111222,11111222,99999999' 
TABS,ioos:station:wmo:42047:1,2010-05-02T06:00:00Z,27.8966,-93.5973,2.0,15.52157652,11.32294131,-99999.0,'11111222,11111222,99999999' 
TABS,ioos:station:wmo:42047:1,2010-05-02T06:30:00Z,27.8966,-93.5973,2.0,21.06412593,13.99515988,-99999.0,'11111222,11111222,99999999' 
TABS,ioos:station:wmo:42047:1,2010-05-02T07:00:00Z,27.8966,-93.5973,2.0,19.1446235,10.21494004,-99999.0,'11111222,11111222,99999999' 
TABS,ioos:station:wmo:42047:1,2010-05-02T07:30:00Z,27.8966,-93.5973,2.0,3.998838439,5.162567191,-99999.0,'11133222,11111222,99999999' 
TABS,ioos:station:wmo:42047:1,2010-05-02T08:00:00Z,27.8966,-93.5973,2.0,25.01704544,5.131413061,-99999.0,'11133222,11111222,99999999' 
TABS,ioos:station:wmo:42047:1,2010-05-02T08:30:00Z,27.8966,-93.5973,2.0,356.547534,7.804165554,-99999.0,'11133222,11111222,99999999' 
TABS,ioos:station:wmo:42047:1,2010-05-02T09:00:00Z,27.8966,-93.5973,2.0,323.5455776,2.760072463,-99999.0,'11133222,11111222,99999999' 
TABS,ioos:station:wmo:42047:1,2010-05-02T09:30:00Z,27.8966,-93.5973,2.0,325.4377666,5.464430437,-99999.0,'11133222,11111222,99999999' 
TABS,ioos:station:wmo:42047:1,2010-05-02T10:00:00Z,27.8966,-93.5973,2.0,302.5823604,6.740867897,-99999.0,'11133222,11111222,99999999' 
TABS,ioos:station:wmo:42047:1,2010-05-02T10:30:00Z,27.8966,-93.5973,2.0,284.5094281,6.466219916,-99999.0,'11133222,11111222,99999999' 
TABS,ioos:station:wmo:42047:1,2010-05-02T11:00:00Z,27.8966,-93.5973,2.0,285.9162152,2.662048084,-99999.0,'11133222,11111222,99999999' 
TABS,ioos:station:wmo:42047:1,2010-05-02T11:30:00Z,27.8966,-93.5973,2.0,285.2555039,4.10463153,-99999.0,'11133222,11111222,99999999' 
TABS,ioos:station:wmo:42047:1,2010-05-02T12:00:00Z,27.8966,-93.5973,2.0,312.5073319,10.24152821,-99999.0,'11111222,11111222,99999999' 
TABS,ioos:station:wmo:42047:1,2010-05-02T12:30:00Z,27.8966,-93.5973,2.0,325.523525,4.646052088,-99999.0,'11133222,11111222,99999999' 
TABS,ioos:station:wmo:42047:1,2010-05-02T13:00:00Z,27.8966,-93.5973,2.0,291.5436151,12.36372112,-99999.0,'11111222,11111222,99999999' 
TABS,ioos:station:wmo:42047:1,2010-05-02T13:30:00Z,27.8966,-93.5973,2.0,297.2890164,12.03995017,-99999.0,'11111222,11111222,99999999' 
TABS,ioos:station:wmo:42047:1,2010-05-02T14:00:00Z,27.8966,-93.5973,2.0,306.4570689,14.42237498,-99999.0,'11111222,11111222,99999999' 
TABS,ioos:station:wmo:42047:1,2010-05-02T14:30:00Z,27.8966,-93.5973,2.0,338.0257539,7.990506868,-99999.0,'11133222,11111222,99999999' 
TABS,ioos:station:wmo:42047:1,2010-05-02T15:00:00Z,27.8966,-93.5973,2.0,336.918751,16.7074654,-99999.0,'11111222,11111222,99999999' 
TABS,ioos:station:wmo:42047:1,2010-05-02T15:30:00Z,27.8966,-93.5973,2.0,340.056688,16.09524775,-99999.0,'11111222,11111222,99999999' 
TABS,ioos:station:wmo:42047:1,2010-05-02T16:00:00Z,27.8966,-93.5973,2.0,343.1258578,19.73993414,-99999.0,'11111222,11111222,99999999' 
TABS,ioos:station:wmo:42047:1,2010-05-02T16:30:00Z,27.8966,-93.5973,2.0,338.0298387,18.25578812,-99999.0,'11111222,11111222,99999999' 
TABS,ioos:station:wmo:42047:1,2010-05-02T17:00:00Z,27.8966,-93.5973,2.0,359.2089528,23.17220965,-99999.0,'11111222,11144222,99999999' 
TABS,ioos:station:wmo:42047:1,2010-05-02T17:30:00Z,27.8966,-93.5973,2.0,3.139671668,25.19781737,-99999.0,'11111222,11111222,99999999' 
TABS,ioos:station:wmo:42047:1,2010-05-02T18:00:00Z,27.8966,-93.5973,2.0,12.77457772,21.25612618,-99999.0,'11111222,11111222,99999999' 
TABS,ioos:station:wmo:42047:1,2010-05-02T18:30:00Z,27.8966,-93.5973,2.0,17.87886525,27.03558581,-99999.0,'11111222,11111222,99999999' 
TABS,ioos:station:wmo:42047:1,2010-05-02T19:00:00Z,27.8966,-93.5973,2.0,31.14225931,29.1977756,-99999.0,'11111222,11111222,99999999' 
TABS,ioos:station:wmo:42047:1,2010-05-02T19:30:00Z,27.8966,-93.5973,2.0,38.49389819,23.71352357,-99999.0,'11111222,11111222,99999999' 
TABS,ioos:station:wmo:42047:1,2010-05-02T20:00:00Z,27.8966,-93.5973,2.0,37.06836171,23.11013847,-99999.0,'11111222,11111222,99999999' 
TABS,ioos:station:wmo:42047:1,2010-05-02T20:30:00Z,27.8966,-93.5973,2.0,35.83947344,15.23446422,-99999.0,'11111222,11111222,99999999' 
TABS,ioos:station:wmo:42047:1,2010-05-02T21:00:00Z,27.8966,-93.5973,2.0,68.14787,12.57343628,-99999.0,'11111222,11111222,99999999' 
TABS,ioos:station:wmo:42047:1,2010-05-02T21:30:00Z,27.8966,-93.5973,2.0,55.96041505,20.4549505,-99999.0,'11111222,11111222,99999999' 
TABS,ioos:station:wmo:42047:1,2010-05-02T22:00:00Z,27.8966,-93.5973,2.0,47.06327975,17.08770611,-99999.0,'11111222,11111222,99999999' 
TABS,ioos:station:wmo:42047:1,2010-05-02T22:30:00Z,27.8966,-93.5973,2.0,56.96485146,14.80314156,-99999.0,'11111222,11111222,99999999' 
TABS,ioos:station:wmo:42047:1,2010-05-02T23:00:00Z,27.8966,-93.5973,2.0,89.45528685,11.57052289,-99999.0,'11111222,11111222,99999999' 
TABS,ioos:station:wmo:42047:1,2010-05-02T23:30:00Z,27.8966,-93.5973,2.0,101.2604877,11.36885658,-99999.0,'11111222,11111222,99999999' 
TABS,ioos:station:wmo:42047:1,2010-05-03T00:00:00Z,27.8966,-93.5973,2.0,112.8599345,8.443151071,-99999.0,'11133222,11111222,99999999' 
TABS,ioos:station:wmo:42047:1,2010-05-03T00:30:00Z,27.8966,-93.5973,2.0,136.7786909,9.111926251,-99999.0,'11133222,11111222,99999999' 
TABS,ioos:station:wmo:42047:1,2010-05-03T01:00:00Z,27.8966,-93.5973,2.0,153.4712481,7.030199144,-99999.0,'11133222,11111222,99999999' 
TABS,ioos:station:wmo:42047:1,2010-05-03T01:30:00Z,27.8966,-93.5973,2.0,142.3110914,7.556771798,-99999.0,'11133222,11111222,99999999' 
TABS,ioos:station:wmo:42047:1,2010-05-03T02:00:00Z,27.8966,-93.5973,2.0,147.5476893,6.932596916,-99999.0,'11133222,11111222,99999999' 
TABS,ioos:station:wmo:42047:1,2010-05-03T02:30:00Z,27.8966,-93.5973,2.0,179.1591688,8.860953673,-99999.0,'11133222,11111222,99999999' 
TABS,ioos:station:wmo:42047:1,2010-05-03T03:00:00Z,27.8966,-93.5973,2.0,179.8127533,9.190048966,-99999.0,'11133222,11111222,99999999' 
TABS,ioos:station:wmo:42047:1,2010-05-03T03:30:00Z,27.8966,-93.5973,2.0,167.7898787,7.990757161,-99999.0,'11133222,11111222,99999999' 
TABS,ioos:station:wmo:42047:1,2010-05-03T04:00:00Z,27.8966,-93.5973,2.0,196.5227784,6.540068807,-99999.0,'11133222,11111222,99999999' 
TABS,ioos:station:wmo:42047:1,2010-05-03T04:30:00Z,27.8966,-93.5973,2.0,249.7355656,5.052731934,-99999.0,'11133222,11111222,99999999' 
TABS,ioos:station:wmo:42047:1,2010-05-03T05:00:00Z,27.8966,-93.5973,2.0,240.5263489,8.373679,-99999.0,'11133222,11111222,99999999' 
TABS,ioos:station:wmo:42047:1,2010-05-03T05:30:00Z,27.8966,-93.5973,2.0,266.3875125,9.999864999,-99999.0,'11133222,11111222,99999999' 
TABS,ioos:station:wmo:42047:1,2010-05-03T06:00:00Z,27.8966,-93.5973,2.0,267.0264667,12.14634925,-99999.0,'11111222,11111222,99999999' 
TABS,ioos:station:wmo:42047:1,2010-05-03T06:30:00Z,27.8966,-93.5973,2.0,264.0172691,15.73569509,-99999.0,'11111222,11111222,99999999' 
TABS,ioos:station:wmo:42047:1,2010-05-03T07:00:00Z,27.8966,-93.5973,2.0,258.9609752,17.80950589,-99999.0,'11111222,11111222,99999999' 
TABS,ioos:station:wmo:42047:1,2010-05-03T07:30:00Z,27.8966,-93.5973,2.0,259.6756231,21.42689898,-99999.0,'11111222,11111222,99999999' 
TABS,ioos:station:wmo:42047:1,2010-05-03T08:00:00Z,27.8966,-93.5973,2.0,267.7239625,22.91807365,-99999.0,'11111222,11111222,99999999' 
TABS,ioos:station:wmo:42047:1,2010-05-03T08:30:00Z,27.8966,-93.5973,2.0,291.0441153,26.40075756,-99999.0,'11111222,11111222,99999999' 
TABS,ioos:station:wmo:42047:1,2010-05-03T09:00:00Z,27.8966,-93.5973,2.0,293.8312264,24.75014343,-99999.0,'11111222,11111222,99999999' 
TABS,ioos:station:wmo:42047:1,2010-05-03T09:30:00Z,27.8966,-93.5973,2.0,300.7112156,24.86753707,-99999.0,'11111222,11111222,99999999' 
TABS,ioos:station:wmo:42047:1,2010-05-03T10:00:00Z,27.8966,-93.5973,2.0,308.5169,25.61257699,-99999.0,'11111222,11111222,99999999' 
TABS,ioos:station:wmo:42047:1,2010-05-03T10:30:00Z,27.8966,-93.5973,2.0,305.4400649,23.79941386,-99999.0,'11111222,11111222,99999999' 
TABS,ioos:station:wmo:42047:1,2010-05-03T11:00:00Z,27.8966,-93.5973,2.0,298.3942577,15.41436019,-99999.0,'11111222,11111222,99999999' 
TABS,ioos:station:wmo:42047:1,2010-05-03T11:30:00Z,27.8966,-93.5973,2.0,315.0407787,20.02526904,-99999.0,'11111222,11111222,99999999' 
TABS,ioos:station:wmo:42047:1,2010-05-03T12:00:00Z,27.8966,-93.5973,2.0,325.3387853,25.84719714,-99999.0,'11111222,11111222,99999999' 
TABS,ioos:station:wmo:42047:1,2010-05-03T12:30:00Z,27.8966,-93.5973,2.0,324.9734349,20.21045522,-99999.0,'11111222,11111222,99999999' 
TABS,ioos:station:wmo:42047:1,2010-05-03T13:00:00Z,27.8966,-93.5973,2.0,321.2576536,21.60353906,-99999.0,'11111222,11111222,99999999' 
TABS,ioos:station:wmo:42047:1,2010-05-03T13:30:00Z,27.8966,-93.5973,2.0,333.7122887,22.19547026,-99999.0,'11111222,11111222,99999999' 
TABS,ioos:station:wmo:42047:1,2010-05-03T14:00:00Z,27.8966,-93.5973,2.0,338.8954212,21.38439852,-99999.0,'11111222,11111222,99999999' 
TABS,ioos:station:wmo:42047:1,2010-05-03T14:30:00Z,27.8966,-93.5973,2.0,334.3592646,16.91581804,-99999.0,'11111222,11111222,99999999' 
TABS,ioos:station:wmo:42047:1,2010-05-03T15:00:00Z,27.8966,-93.5973,2.0,338.1481397,23.07822567,-99999.0,'11111222,11111222,99999999' 
TABS,ioos:station:wmo:42047:1,2010-05-03T15:30:00Z,27.8966,-93.5973,2.0,333.8718152,22.88905634,-99999.0,'11111222,11111222,99999999' 
TABS,ioos:station:wmo:42047:1,2010-05-03T16:00:00Z,27.8966,-93.5973,2.0,327.1165815,23.6492114,-99999.0,'11111222,11111222,99999999' 
TABS,ioos:station:wmo:42047:1,2010-05-03T16:30:00Z,27.8966,-93.5973,2.0,316.6029197,24.52498522,-99999.0,'11111222,11111222,99999999' 
TABS,ioos:station:wmo:42047:1,2010-05-03T17:00:00Z,27.8966,-93.5973,2.0,330.3708641,25.85013153,-99999.0,'11111222,11111222,99999999' 
TABS,ioos:station:wmo:42047:1,2010-05-03T17:30:00Z,27.8966,-93.5973,2.0,329.1650926,30.57141475,-99999.0,'11111222,11111222,99999999' 
TABS,ioos:station:wmo:42047:1,2010-05-03T18:00:00Z,27.8966,-93.5973,2.0,337.4036168,30.37154096,-99999.0,'11111222,11111222,99999999' 
TABS,ioos:station:wmo:42047:1,2010-05-03T18:30:00Z,27.8966,-93.5973,2.0,329.6592161,33.13891368,-99999.0,'11111222,11111222,99999999' 
TABS,ioos:station:wmo:42047:1,2010-05-03T19:00:00Z,27.8966,-93.5973,2.0,337.4493877,30.66463761,-99999.0,'11111222,11111222,99999999' 
TABS,ioos:station:wmo:42047:1,2010-05-03T19:30:00Z,27.8966,-93.5973,2.0,336.9209663,34.05571024,-99999.0,'11111222,11111222,99999999' 
TABS,ioos:station:wmo:42047:1,2010-05-03T20:00:00Z,27.8966,-93.5973,2.0,330.2768578,33.11727646,-99999.0,'11111222,11111222,99999999' 
TABS,ioos:station:wmo:42047:1,2010-05-03T20:30:00Z,27.8966,-93.5973,2.0,332.0891512,36.55190966,-99999.0,'11111222,11111222,99999999' 
TABS,ioos:station:wmo:42047:1,2010-05-03T21:00:00Z,27.8966,-93.5973,2.0,330.6581882,33.87596345,-99999.0,'11111222,11111222,99999999' 
TABS,ioos:station:wmo:42047:1,2010-05-03T21:30:00Z,27.8966,-93.5973,2.0,336.3181781,37.34487917,-99999.0,'11111222,11111222,99999999' 
TABS,ioos:station:wmo:42047:1,2010-05-03T22:00:00Z,27.8966,-93.5973,2.0,337.970116,35.35110324,-99999.0,'11111222,11111222,99999999' 
TABS,ioos:station:wmo:42047:1,2010-05-03T22:30:00Z,27.8966,-93.5973,2.0,348.8346776,32.68874118,-99999.0,'11111222,11111222,99999999' 
TABS,ioos:station:wmo:42047:1,2010-05-03T23:00:00Z,27.8966,-93.5973,2.0,347.6171957,29.84430431,-99999.0,'11111222,11111222,99999999' 
TABS,ioos:station:wmo:42047:1,2010-05-03T23:30:00Z,27.8966,-93.5973,2.0,344.9711071,23.79389207,-99999.0,'11111222,11111222,99999999' 
TABS,ioos:station:wmo:42047:1,2010-05-04T00:00:00Z,27.8966,-93.5973,2.0,346.8716582,20.51623747,-99999.0,'11111222,11111222,99999999' 
TABS,ioos:station:wmo:42047:1,2010-05-04T00:30:00Z,27.8966,-93.5973,2.0,350.2964667,12.874199,-99999.0,'11111222,11111222,99999999' 
TABS,ioos:station:wmo:42047:1,2010-05-04T01:00:00Z,27.8966,-93.5973,2.0,348.4350669,10.12557653,-99999.0,'11111222,11111222,99999999' 
TABS,ioos:station:wmo:42047:1,2010-05-04T01:30:00Z,27.8966,-93.5973,2.0,18.21908837,7.548410429,-99999.0,'11133222,11111222,99999999' 
TABS,ioos:station:wmo:42047:1,2010-05-04T02:00:00Z,27.8966,-93.5973,2.0,11.37165851,10.95505363,-99999.0,'11111222,11111222,99999999' 
TABS,ioos:station:wmo:42047:1,2010-05-04T02:30:00Z,27.8966,-93.5973,2.0,0.858260813,8.680973448,-99999.0,'11133222,11111222,99999999' 
TABS,ioos:station:wmo:42047:1,2010-05-04T03:00:00Z,27.8966,-93.5973,2.0,35.31134133,9.411482349,-99999.0,'11133222,11111222,99999999' 
TABS,ioos:station:wmo:42047:1,2010-05-04T03:30:00Z,27.8966,-93.5973,2.0,19.62584728,2.739123948,-99999.0,'11133222,11111222,99999999' 
TABS,ioos:station:wmo:42047:1,2010-05-04T04:00:00Z,27.8966,-93.5973,2.0,308.793617,2.681510768,-99999.0,'11133222,11111222,99999999' 
TABS,ioos:station:wmo:42047:1,2010-05-04T04:30:00Z,27.8966,-93.5973,2.0,255.0009327,2.743464962,-99999.0,'11133222,11111222,99999999' 
TABS,ioos:station:wmo:42047:1,2010-05-04T05:00:00Z,27.8966,-93.5973,2.0,308.0967779,1.588363938,-99999.0,'11133222,11111222,99999999' 
TABS,ioos:station:wmo:42047:1,2010-05-04T05:30:00Z,27.8966,-93.5973,2.0,222.3142395,3.773022661,-99999.0,'11133222,11111222,99999999' 
TABS,ioos:station:wmo:42047:1,2010-05-04T06:00:00Z,27.8966,-93.5973,2.0,220.1811954,4.293168993,-99999.0,'11133222,11111222,99999999' 
TABS,ioos:station:wmo:42047:1,2010-05-04T06:30:00Z,27.8966,-93.5973,2.0,210.8343327,4.565303933,-99999.0,'11133222,11111222,99999999' 
TABS,ioos:station:wmo:42047:1,2010-05-04T07:00:00Z,27.8966,-93.5973,2.0,246.3579226,7.979730572,-99999.0,'11133222,11111222,99999999' 
TABS,ioos:station:wmo:42047:1,2010-05-04T07:30:00Z,27.8966,-93.5973,2.0,253.559238,6.996034591,-99999.0,'11133222,11111222,99999999' 
TABS,ioos:station:wmo:42047:1,2010-05-04T08:00:00Z,27.8966,-93.5973,2.0,228.5923977,13.87949927,-99999.0,'11111222,11111222,99999999' 
TABS,ioos:station:wmo:42047:1,2010-05-04T08:30:00Z,27.8966,-93.5973,2.0,247.6304613,17.05324016,-99999.0,'11111222,11111222,99999999' 
TABS,ioos:station:wmo:42047:1,2010-05-04T09:00:00Z,27.8966,-93.5973,2.0,244.8888739,19.91189092,-99999.0,'11111222,11111222,99999999' 
TABS,ioos:station:wmo:42047:1,2010-05-04T09:30:00Z,27.8966,-93.5973,2.0,256.1259088,15.38894733,-99999.0,'11111222,11111222,99999999' 
TABS,ioos:station:wmo:42047:1,2010-05-04T10:00:00Z,27.8966,-93.5973,2.0,251.4306879,21.63636291,-99999.0,'11111222,11111222,99999999' 
TABS,ioos:station:wmo:42047:1,2010-05-04T10:30:00Z,27.8966,-93.5973,2.0,244.9139743,26.67623849,-99999.0,'11111222,11111222,99999999' 
TABS,ioos:station:wmo:42047:1,2010-05-04T11:00:00Z,27.8966,-93.5973,2.0,237.5188175,27.33616652,-99999.0,'11111222,11111222,99999999' 
TABS,ioos:station:wmo:42047:1,2010-05-04T11:30:00Z,27.8966,-93.5973,2.0,242.6230687,32.20708152,-99999.0,'11111222,11111222,99999999' 
TABS,ioos:station:wmo:42047:1,2010-05-04T12:00:00Z,27.8966,-93.5973,2.0,252.0347711,37.77151572,-99999.0,'11111222,11111222,99999999' 
TABS,ioos:station:wmo:42047:1,2010-05-04T12:30:00Z,27.8966,-93.5973,2.0,259.5850064,43.42541422,-99999.0,'11111222,11111222,99999999' 
TABS,ioos:station:wmo:42047:1,2010-05-04T13:00:00Z,27.8966,-93.5973,2.0,264.58211,42.79113927,-99999.0,'11111222,11111222,99999999' 
TABS,ioos:station:wmo:42047:1,2010-05-04T13:30:00Z,27.8966,-93.5973,2.0,261.0597099,39.12529744,-99999.0,'11111222,11111222,99999999' 
TABS,ioos:station:wmo:42047:1,2010-05-04T14:00:00Z,27.8966,-93.5973,2.0,265.6801896,41.55803773,-99999.0,'11111222,11111222,99999999' 
TABS,ioos:station:wmo:42047:1,2010-05-04T14:30:00Z,27.8966,-93.5973,2.0,269.8493942,38.15013106,-99999.0,'11111222,11111222,99999999' 
TABS,ioos:station:wmo:42047:1,2010-05-04T15:00:00Z,27.8966,-93.5973,2.0,284.9606144,37.1491615,-99999.0,'11111222,11111222,99999999' 
TABS,ioos:station:wmo:42047:1,2010-05-04T15:30:00Z,27.8966,-93.5973,2.0,292.9848435,41.46160875,-99999.0,'11111222,11111222,99999999' 
TABS,ioos:station:wmo:42047:1,2010-05-04T16:00:00Z,27.8966,-93.5973,2.0,287.5178135,35.34930975,-99999.0,'11111222,11111222,99999999' 